Simultaneous Nadir Overpasses (SNOs) Predictions

Prediction of SNOs between LANDSAT-8 and METOP-B Satellite Orbit:

Table of predicted SNOs for the next 14.0 days since TLE Epoch: 3/2/2018
Index Date (LANDSAT-8) Time (LANDSAT-8) Lat,Lon (LANDSAT-8) SZA (LANDSAT-8 ) Date (METOP-B) Time (METOP-B) Lat,Lon (METOP-B) SZA (METOP-B ) Distance(km) Time Diff (sec)
1 03/04/2018 21:56:19 81.15,-109.13 89.07 03/04/2018 21:56:16 81.15,-109.18 89.06 1.01 3
2 03/04/2018 22:45:45 -81.17, 58.81 90.91 03/04/2018 22:46:55 -81.17, 58.74 90.89 1.16 70
3 03/07/2018 16:41:07 -81.12, 149.09 92.08 03/07/2018 16:39:58 -81.12, 149.04 92.11 1.02 69
4 03/07/2018 17:30:32 81.14, -42.85 87.97 03/07/2018 17:30:37 81.14, -42.90 87.97 0.79 5
5 03/10/2018 12:15:20 -81.13,-144.28 93.13 03/10/2018 12:14:19 -81.13,-144.31 93.16 0.56 61
6 03/10/2018 13:04:45 81.15, 23.76 86.92 03/10/2018 13:04:58 81.15, 23.75 86.92 0.13 13
7 03/13/2018 07:49:33 -81.14, -77.68 94.19 03/13/2018 07:48:40 -81.14, -77.67 94.21 0.37 53
8 03/13/2018 08:38:58 81.16, 90.33 85.85 03/13/2018 08:39:19 81.16, 90.38 85.86 0.95 21
9 03/16/2018 03:23:45 -81.15, -11.13 95.26 03/16/2018 03:23:00 -81.14, -11.04 95.28 1.47 45




NCC Satellite Simultaneous Nadir Overpasses (SNOs) Prediction Service
